Find Starlink 33830

NORAD ID: 63587 Int'l Des: 2025-076 Owner: SPXS Country: US Constellation: starlink operational
LEOCIRCULAR

現在のビュー

3D地球を読み込み中...

About Starlink 33830

Starlink 33830 (NORAD 63587) is a starlink constellation satellite (v2 mini) launched Apr 14, 2025 by SPXS of US. It operates in LEO, CIRCULAR orbit with a mass of 575.00 kg.

次回通過

Passes for default location (London). Set your location on the main map for personalized predictions.

高度履歴

Loading altitude history...

軌道要素

1 63587U 25076U 26265.13140976 .00011486 00000-0 42615-3 0 9992
2 63587 43.0033 292.2892 0002357 288.1810 71.8785 15.27588797 81872
Epoch: Sep 22, 2026 • Age: 11 hours

現在のステータス

高度 482.5 km
遠地点 / 近地点 N/A
速度 7.63 km/s
衛星直下点 -3.11°S, 73.15°E
打ち上げ日 Apr 14, 2025
運用期間 1.4 years
タイプ internet

技術仕様

分類 Payload
質量 575.00 kg
乾燥質量 530.00 kg
長さ 0.30 m
スパン 29.00 m
形状 ? Box + pan
製造者 SPXS
バスタイプ Starlink V2MO
フェーズステータス In Orbit
所有者/国 SPXS/US

Most Searched